Flag for Austria

Past Weather in Graz, Styria, Austria — February 2014

Now
48 °F

Cool.


Feels Like: 48 °F
Forecast: 68 / 42 °F
Wind: 2 mph from South

Location: Graz-Thalerhof-Flughafen
Current Time: Sep 19, 2020 at 5:40:21 am
Latest Report: Sep 19, 2020 at 4:50 am
Visibility: 2 mi
Pressure30.27 "Hg
Humidity: 94%
Dew Point: 46 °F
Location of GrazLocation

February 2014 Weather in Graz — Graph

°F

High & Low Weather Summary for February 2014

 TemperatureHumidityPressure
High55 °F (Feb 26, 3:20 pm)100% (Feb 1, 2:20 am)30.24 "Hg (Feb 1, 2:20 am)
Low23 °F (Feb 13, 6:50 am)37% (Feb 14, 1:20 pm)29.53 "Hg (Feb 9, 9:50 am)
Average37 °F89%29.94 "Hg
* Reported Feb 1 12:20 am — Feb 28 11:50 pm, Graz. Weather by CustomWeather, © 2020

Note: Actual official high and low records may vary slightly from our data, if they occured in-between our weather recording intervals... More about our weather records

Graz Weather History for February 1, 2014

Scroll right to see more
 ConditionsComfort  
Time TempWeatherWind HumidityBarometerVisibility
12:20 am
Sat, Feb 1
28 °FLight freezing rain. Ice fog.3 mph93%30.12 "Hg2 mi
12:50 am28 °FLight freezing rain. Ice fog.3 mph93%30.12 "Hg2 mi
1:20 am28 °FLight freezing rain. Ice fog.5 mph93%30.12 "Hg2 mi
1:50 am28 °FLight freezing rain. Ice fog.5 mph93%30.12 "Hg2 mi
2:20 am27 °FIce fog.5 mph100%30.12 "Hg3 mi
2:50 am27 °FIce fog.3 mph100%30.09 "Hg3 mi
3:50 am27 °FLight freezing rain. Mostly cloudy.3 mph100%30.09 "Hg2 mi
4:20 am27 °FLight freezing rain. Mostly cloudy.5 mph100%30.09 "Hg2 mi
4:50 am27 °FLight freezing rain. Mostly cloudy.3 mph100%30.09 "Hg2 mi
5:20 am27 °FLight freezing rain. Mostly cloudy.5 mph100%30.09 "Hg2 mi
5:50 am27 °FLight freezing rain. Mostly cloudy.6 mph93%30.09 "Hg2 mi
6:20 am27 °FLight freezing rain. Mostly cloudy.6 mph93%30.09 "Hg3 mi
6:50 am27 °FLight freezing rain. Mostly cloudy.6 mph93%30.09 "Hg2 mi
7:20 am27 °FLight freezing rain. Mostly cloudy.6 mph93%30.09 "Hg2 mi
7:50 am27 °FLight freezing rain. Mostly cloudy.3 mph93%30.07 "Hg2 mi
8:20 am27 °FLight freezing rain. Mostly cloudy.3 mph93%30.07 "Hg2 mi
8:50 am27 °FLight freezing rain. Mostly cloudy.3 mph93%30.07 "Hg3 mi
9:20 am27 °FLight freezing rain. Mostly cloudy.5 mph93%30.07 "Hg3 mi
9:50 am27 °FLight freezing rain. Mostly cloudy.7 mph93%30.07 "Hg3 mi
10:50 am25 °FLight freezing rain. Mostly cloudy.6 mph100%30.09 "Hg2 mi
11:50 am25 °FLight freezing rain. Mostly cloudy.6 mph100%30.07 "Hg2 mi
12:20 pm25 °FLight freezing rain. Mostly cloudy.5 mph100%30.07 "Hg2 mi
12:50 pm25 °FLight freezing rain. Mostly cloudy.6 mph100%30.04 "Hg2 mi
1:20 pm25 °FLight freezing rain. Mostly cloudy.5 mph100%30.04 "Hg2 mi
1:50 pm25 °FLight freezing rain. Mostly cloudy.5 mph100%30.04 "Hg2 mi
2:20 pm25 °FLight freezing rain. Mostly cloudy.5 mph100%30.04 "Hg2 mi
2:50 pm25 °FLight freezing rain. Mostly cloudy.7 mph100%30.04 "Hg2 mi
3:20 pm25 °FLight freezing rain. Mostly cloudy.5 mph100%30.01 "Hg2 mi
3:50 pm25 °FLight freezing rain. Mostly cloudy.3 mph100%30.04 "Hg2 mi
4:20 pm25 °FLight freezing rain. Mostly cloudy.5 mph100%30.04 "Hg2 mi
4:50 pm27 °FLight freezing rain. Mostly cloudy.3 mph93%30.01 "Hg2 mi
5:20 pm27 °FLight freezing rain. Mostly cloudy.3 mph93%30.04 "Hg2 mi
5:50 pm27 °FLight freezing rain. Mostly cloudy.6 mph93%30.04 "Hg2 mi
6:20 pm25 °FLight freezing rain. Passing clouds.5 mph100%30.04 "Hg2 mi
6:50 pm25 °FLight freezing rain. Mostly cloudy.3 mph93%30.04 "Hg2 mi
7:20 pm25 °FLight freezing rain. Mostly cloudy.1 mph93%30.04 "Hg2 mi
7:50 pm25 °FLight freezing rain. Mostly cloudy.1 mph100%30.04 "Hg2 mi
8:20 pm25 °FLight freezing rain. Mostly cloudy.2 mph100%30.04 "Hg2 mi
8:50 pm25 °FLight freezing rain. Mostly cloudy.No wind100%30.01 "Hg2 mi
9:20 pm25 °FLight freezing rain. Passing clouds.1 mph100%30.01 "Hg2 mi
9:50 pm25 °FLight freezing rain. Passing clouds.2 mph100%30.01 "Hg2 mi
10:20 pm27 °FLight freezing rain. Mostly cloudy.3 mph93%30.01 "Hg2 mi
10:50 pm27 °FLight freezing rain. Mostly cloudy.2 mph93%30.01 "Hg2 mi
11:20 pm27 °FLight freezing rain. Mostly cloudy.1 mph93%30.01 "Hg2 mi
11:50 pm27 °FLight freezing rain. Ice fog.1 mph93%30.01 "Hg3 mi
Weather by CustomWeather, © 2020

See weather overview